Terug naar catalogus

STARLINK-34021

ActiefCommunicatieVLEO
NORAD 63940·PAYLOAD·🇺🇸 United States

Gelanceerd May 13, 2025 vanaf Vandenberg Space Force Base

Loading…

Volgende Passages (komende 24 uur)

TLE

VersSource: CelesTrak SupGP

Epoch: Sep 14, 2026, 20:41 UTC

1 63940C 25098Q   26257.86229167 -.00036139  00000+0 -12569-2 0  2574
2 63940  70.0001 155.7712 0002997 266.1178  21.0900 15.29605351    18

Volg STARLINK-34021 in realtime met AllMySat

Download on the App Store